Hourly Data Report for August 02, 2022

SANDSPIT
BRITISH COLUMBIA
Current Station Operator: NAVCAN

53°15'15.000" N
131°48'50.000" W
6.40 m
1057052
71111
YZP

Download Data

Hourly Data (August 2022)
Hourly Data Report for August 2, 2022
TIME
LST
Temp Definition
°C
Dew Point Definition
°C
Rel Hum Definition
%
Precip. Amount Definition
mm

Wind Dir Definition
10's deg

Wind Spd Definition
km/h
Visibility Definition
km
Stn Press Definition
kPa
Hmdx Definition


Wind Chill Definition


Weather Definition


00:00 14.8 11.6 81 0.0 26 18 16.1 101.69     LegendNANA
01:00 14.6 11.8 83 0.0 26 17 16.1 101.69     Rain
02:00 13.9 12.3 90 0.8 23 9 14.5 101.64     Rain
03:00 14.0 12.4 90 0.8 LegendMM 5 4.8 101.62     Moderate Rain, Fog
04:00 13.5 12.1 91 2.8 23 8 6.4 101.56     Moderate Rain, Fog
05:00 13.0 11.9 93 3.8 17 9 6.4 101.49     Rain, Fog
06:00 13.3 12.2 93 0.5 17 11 16.1 101.43     Rain
07:00 13.8 12.5 92 0.0 18 9 16.1 101.40     LegendNANA
08:00 14.6 12.8 89 0.0 15 9 16.1 101.34     LegendNANA
09:00 15.9 13.8 87 0.0 19 11 16.1 101.33     LegendNANA
10:00 16.1 12.7 80 0.0 24 11 16.1 101.33     LegendNANA
11:00 16.4 12.3 76 0.0 25 21 16.1 101.35     LegendNANA
12:00 16.9 11.2 69 0.0 24 24 16.1 101.34     LegendNANA
13:00 16.6 11.4 71 0.0 27 22 16.1 101.39     LegendNANA
14:00 16.5 10.8 69 0.0 26 30 16.1 101.38     LegendNANA
15:00 15.3 11.9 80 0.0 29 18 16.1 101.41     LegendNANA
16:00 16.0 11.5 74 0.0 26 26 16.1 101.35     LegendNANA
17:00 16.8 11.4 70 0.0 25 28 16.1 101.32     LegendNANA
18:00 16.6 11.4 71 0.0 26 28 16.1 101.33     LegendNANA
19:00 15.3 11.1 76 0.0 26 24 16.1 101.31     LegendNANA
20:00 14.7 10.9 78 0.0 25 22 16.1 101.31     LegendNANA
21:00 14.1 10.6 79 0.0 29 22 16.1 101.31     LegendNANA
22:00 13.9 10.4 79 0.0 25 21 16.1 101.30     LegendNANA
23:00 13.9 10.7 81 0.0 26 22 16.1 101.30     LegendNANA

Notes on Data Quality.

Legend

  • E = Estimated
  • M = Missing
  • NA = Not Available*
  • [empty] = Indicates an unobserved value
Date modified: